TimeCST,TemperatureF,Dew PointF,Humidity,Sea Level PressureIn,VisibilityMPH,Wind Direction,Wind SpeedMPH,Gust SpeedMPH,PrecipitationIn,Events,Conditions,WindDirDegrees,DateUTC
12:53 AM,-2.0,-9.9,69,30.45,10.0,NNW,12.7,-,N/A,,Partly Cloudy,340,2014-01-05 06:53:00
1:53 AM,-2.9,-11.9,65,30.46,10.0,NNW,12.7,-,N/A,,Clear,340,2014-01-05 07:53:00
2:53 AM,-2.9,-11.0,68,30.48,10.0,NNW,5.8,-,N/A,,Clear,340,2014-01-05 08:53:00
3:53 AM,-2.9,-11.0,68,30.50,10.0,NW,8.1,-,N/A,,Clear,320,2014-01-05 09:53:00
4:53 AM,-2.9,-11.0,68,30.50,10.0,WNW,5.8,-,N/A,,Mostly Cloudy,290,2014-01-05 10:53:00
5:53 AM,-2.9,-11.0,68,30.51,10.0,West,5.8,-,N/A,,Mostly Cloudy,270,2014-01-05 11:53:00
6:53 AM,-2.9,-11.0,68,30.52,10.0,WNW,9.2,-,N/A,,Clear,290,2014-01-05 12:53:00
7:53 AM,-4.0,-11.0,72,30.53,10.0,WNW,9.2,-,N/A,,Clear,300,2014-01-05 13:53:00
8:53 AM,-4.0,-11.0,72,30.56,10.0,WNW,6.9,-,N/A,,Partly Cloudy,290,2014-01-05 14:53:00
9:53 AM,-0.0,-11.0,60,30.58,10.0,NNW,17.3,-,N/A,,Clear,330,2014-01-05 15:53:00
10:53 AM,-0.0,-11.0,60,30.60,10.0,NNW,18.4,-,N/A,,Clear,330,2014-01-05 16:53:00
11:31 AM,-0.4,-9.4,66,30.48,10.0,NNW,13.8,-,N/A,,Overcast,340,2014-01-05 17:31:00
11:42 AM,-0.4,-9.4,66,30.48,10.0,NNW,15.0,-,N/A,,Scattered Clouds,330,2014-01-05 17:42:00
11:53 AM,-0.0,-9.0,66,30.59,10.0,NNW,15.0,-,N/A,,Partly Cloudy,330,2014-01-05 17:53:00
12:53 PM,1.0,-13.0,52,30.57,10.0,NW,27.6,36.8,N/A,,Partly Cloudy,320,2014-01-05 18:53:00
1:53 PM,-0.0,-13.0,54,30.58,10.0,NW,27.6,40.3,N/A,,Overcast,320,2014-01-05 19:53:00
2:00 PM,-2.2,-9.4,71,30.47,2.0,North,26.5,39.1,0.00,Snow,Light Snow,350,2014-01-05 20:00:00
2:05 PM,-2.2,-9.4,71,30.48,0.8,NNW,26.5,34.5,0.00,Snow,Light Snow,330,2014-01-05 20:05:00
2:21 PM,-4.0,-13.0,65,30.49,2.0,NNW,31.1,39.1,0.00,Snow,Light Snow,340,2014-01-05 20:21:00
2:29 PM,-4.0,-13.0,65,30.50,8.0,NNW,27.6,34.5,0.00,,Overcast,330,2014-01-05 20:29:00
2:48 PM,-4.0,-13.0,65,30.50,5.0,NNW,28.8,36.8,0.00,,Haze,340,2014-01-05 20:48:00
2:53 PM,-5.1,-15.0,62,30.63,5.0,NNW,32.2,40.3,0.00,,Haze,340,2014-01-05 20:53:00
3:03 PM,-5.8,-16.6,60,30.51,10.0,NNW,29.9,40.3,N/A,,Mostly Cloudy,330,2014-01-05 21:03:00
3:53 PM,-7.1,-18.0,59,30.65,10.0,NW,29.9,34.5,N/A,,Mostly Cloudy,320,2014-01-05 21:53:00
4:53 PM,-9.0,-22.0,53,30.67,10.0,NW,23.0,33.4,N/A,,Scattered Clouds,320,2014-01-05 22:53:00
5:02 PM,-9.4,-20.2,59,30.55,10.0,NW,23.0,33.4,N/A,,Mostly Cloudy,320,2014-01-05 23:02:00
5:15 PM,-9.4,-20.2,59,30.55,10.0,NW,29.9,41.4,N/A,,Scattered Clouds,310,2014-01-05 23:15:00
5:22 PM,-9.4,-20.2,59,30.56,10.0,NW,25.3,33.4,N/A,,Mostly Cloudy,320,2014-01-05 23:22:00
5:35 PM,-9.4,-22.0,54,30.56,10.0,NW,23.0,35.7,N/A,,Scattered Clouds,310,2014-01-05 23:35:00
5:53 PM,-9.9,-22.0,55,30.68,10.0,NW,25.3,31.1,N/A,,Clear,310,2014-01-05 23:53:00
6:32 PM,-9.4,-20.2,59,30.55,10.0,NW,21.9,29.9,N/A,,Mostly Cloudy,320,2014-01-06 00:32:00
6:53 PM,-11.0,-20.0,64,30.68,10.0,NW,19.6,-,N/A,,Scattered Clouds,310,2014-01-06 00:53:00
7:53 PM,-11.0,-20.9,62,30.67,10.0,NW,20.7,-,N/A,,Partly Cloudy,310,2014-01-06 01:53:00
8:21 PM,-11.2,-20.2,64,30.54,10.0,NW,24.2,33.4,N/A,,Mostly Cloudy,310,2014-01-06 02:21:00
8:48 PM,-11.2,-23.8,54,30.53,10.0,NW,25.3,33.4,N/A,,Scattered Clouds,310,2014-01-06 02:48:00
8:53 PM,-11.0,-22.0,58,30.66,10.0,NW,25.3,35.7,N/A,,Partly Cloudy,310,2014-01-06 02:53:00
9:53 PM,-11.9,-22.0,61,30.65,10.0,NW,24.2,33.4,N/A,,Partly Cloudy,310,2014-01-06 03:53:00
10:12 PM,-11.2,-22.0,59,30.52,10.0,NW,23.0,-,N/A,,Mostly Cloudy,310,2014-01-06 04:12:00
10:38 PM,-11.2,-22.0,59,30.52,10.0,NW,19.6,-,N/A,,Scattered Clouds,310,2014-01-06 04:38:00
10:53 PM,-11.9,-23.1,58,30.63,10.0,NW,20.7,-,N/A,,Clear,310,2014-01-06 04:53:00
11:53 PM,-13.0,-22.0,64,30.62,10.0,NW,18.4,-,N/A,,Clear,310,2014-01-06 05:53:00